EW4757 Potomac Falls VA US current weather conditions

sailwx.info

Wind from 085 at 0 knots gusting 4

Air temperature 1.1° C
Dewpoint -5.1° C

Last reported at 2019-Dec-07 09:01 UTC.
Time now 2019-Dec-07 09:34 UTC

Location: N 39°02' W 077°25'.
View on Google Maps.

See reports from other nearby stations

  
Tides and Currents Weather Stations Pressure Air Temp Water Temp Dewpoint Dewpoint Depression Visibility Wind Speed Wind Dir Waves Ship Positions
date/time (UTC)wind fromknots sea level pressurealtimeterstation pressurevisibilityair tempwater tempwave heightnotes
2019-Dec-07 09:01 085 0 gusting 4 1.1
2019-Dec-07 08:46 075 1.1
2019-Dec-07 08:32 320 1.7
2019-Dec-07 08:16 068 1.7
2019-Dec-07 08:01 304 2.2
2019-Dec-07 07:46 113 2.2
2019-Dec-07 07:30 099 0 gusting 4 2.2
2019-Dec-07 07:16 104 2.2
2019-Dec-07 07:00 300 2.8
2019-Dec-07 06:45 101 3.3
2019-Dec-07 06:30 290 3.3
2019-Dec-07 06:16 106 3.9
2019-Dec-07 06:00 107 0 gusting 11 4.4
2019-Dec-07 05:45 307 0 gusting 6 5.0
2019-Dec-07 05:30 051 0 gusting 11 5.6
2019-Dec-07 05:15 102 2 gusting 9 5.6
2019-Dec-07 05:01 085 1 gusting 7 6.1
2019-Dec-07 04:46 098 1 gusting 7 6.1
2019-Dec-07 04:31 069 0 gusting 8 6.1
2019-Dec-07 04:17 288 0 gusting 7 6.7
2019-Dec-07 04:01 120 1 gusting 6 6.7
2019-Dec-07 03:46 104 1 gusting 6 6.7
2019-Dec-07 03:32 103 2 gusting 6 7.2
2019-Dec-07 03:16 097 1 gusting 13 7.8
2019-Dec-07 03:01 130 0 gusting 13 8.3
2019-Dec-07 02:47 324 8.9
2019-Dec-07 02:31 297 8.9
2019-Dec-07 02:16 299 8.9
2019-Dec-07 02:01 358 8.9
2019-Dec-07 01:46 297 9.4
2019-Dec-07 01:32 297 9.4
2019-Dec-07 01:16 311 10.0
2019-Dec-07 01:01 295 10.0
2019-Dec-07 00:46 299 9.4
2019-Dec-07 00:32 297 8.3
2019-Dec-07 00:16 333 7.2
2019-Dec-07 00:01 294 7.2
2019-Dec-06 23:47 294 7.2
2019-Dec-06 23:31 294 7.2
2019-Dec-06 23:16 294 7.2
2019-Dec-06 23:00 294 7.2
2019-Dec-06 22:45 293 8.3
2019-Dec-06 22:30 269 8.3
2019-Dec-06 22:16 296 8.9
2019-Dec-06 22:01 295 8.9
2019-Dec-06 21:46 295 8.9
2019-Dec-06 21:31 292 8.9
2019-Dec-06 21:16 307 8.9
2019-Dec-06 21:00 307 8.9
2019-Dec-06 20:46 307 8.9
2019-Dec-06 20:16 297 9.4
2019-Dec-06 20:00 294 0 gusting 2 9.4
2019-Dec-06 19:46 297 9.4
2019-Dec-06 19:30 296 10.0
2019-Dec-06 19:15 302 0 gusting 2 10.0
2019-Dec-06 19:00 300 0 gusting 2 9.4
2019-Dec-06 18:45 280 9.4
2019-Dec-06 18:31 302 9.4
2019-Dec-06 18:15 298 9.4
2019-Dec-06 18:01 144 9.4
2019-Dec-06 17:45 296 9.4
2019-Dec-06 17:30 296 8.9
2019-Dec-06 17:15 276 8.9
2019-Dec-06 17:00 277 8.9
2019-Dec-06 16:45 295 8.9
2019-Dec-06 16:30 297 9.4
2019-Dec-06 16:15 297 9.4
2019-Dec-06 16:00 271 8.9
2019-Dec-06 15:46 284 8.9
2019-Dec-06 15:31 290 8.9
2019-Dec-06 15:16 260 8.3
2019-Dec-06 15:01 122 7.2
2019-Dec-06 14:46 148 6.7
2019-Dec-06 14:32 276 6.1
2019-Dec-06 14:16 269 5.0
2019-Dec-06 14:01 300 4.4
2019-Dec-06 13:45 289 3.3
2019-Dec-06 13:30 289 3.3
2019-Dec-06 13:15 290 2.8
2019-Dec-06 13:00 290 1.1
2019-Dec-06 12:45 289 -0.6
2019-Dec-06 12:31 289 -0.6
2019-Dec-06 12:16 289 -0.6
2019-Dec-06 12:00 289 -0.6
2019-Dec-06 11:45 289 -0.6
2019-Dec-06 11:30 289 -0.6
2019-Dec-06 11:15 289 -0.0
2019-Dec-06 11:00 289 -0.0
2019-Dec-06 10:45 289 -0.0
2019-Dec-06 10:30 289 -0.0
2019-Dec-06 10:15 289 -0.0
2019-Dec-06 10:00 289 -0.0
2019-Dec-06 09:45 289 -0.0
2019-Dec-06 09:30 289 -0.6
2019-Dec-06 09:15 289 -0.6
2019-Dec-06 09:00 289 -0.6
2019-Dec-06 08:45 289 -1.1
2019-Dec-06 08:30 289 -0.6
2019-Dec-06 08:15 289 -0.0
2019-Dec-06 08:01 289 0.6
2019-Dec-06 07:46 289 1.1
2019-Dec-06 07:31 289 1.1
2019-Dec-06 07:16 289 1.1
2019-Dec-06 07:01 289 1.1
2019-Dec-06 06:46 289 1.1
2019-Dec-06 06:31 289 1.1
2019-Dec-06 06:16 289 1.1
2019-Dec-06 06:01 289 1.1
2019-Dec-06 05:46 289 1.1
2019-Dec-06 05:31 289 1.1
2019-Dec-06 05:16 289 1.1
2019-Dec-06 05:02 289 1.1
2019-Dec-06 04:46 289 1.7
2019-Dec-06 04:31 289 1.7
2019-Dec-06 04:15 295 0.6
2019-Dec-06 04:01 295 1.1
2019-Dec-06 03:46 295 1.1
2019-Dec-06 03:30 295 1.1
2019-Dec-06 03:16 295 1.1
2019-Dec-06 03:00 295 1.1
2019-Dec-06 02:45 295 1.1
2019-Dec-06 02:31 295 0.6
2019-Dec-06 02:15 295 0.6
2019-Dec-06 02:00 295 1.1
2019-Dec-06 01:45 295 1.7
2019-Dec-06 01:30 295 2.8
2019-Dec-06 01:15 295 3.3
2019-Dec-06 01:00 295 3.3
2019-Dec-06 00:45 295 3.9
2019-Dec-06 00:30 295 3.9
2019-Dec-06 00:15 295 3.9
2019-Dec-06 00:00 279 3.3
2019-Dec-05 23:45 288 3.3
2019-Dec-05 23:30 288 3.3
2019-Dec-05 23:18 293 3.9
2019-Dec-05 23:03 113 3.9
2019-Dec-05 22:47 319 3.9
2019-Dec-05 22:31 295 4.4
2019-Dec-05 22:16 296 4.4
2019-Dec-05 22:01 296 5.0
2019-Dec-05 21:47 297 5.6
2019-Dec-05 21:31 298 6.1
2019-Dec-05 21:16 297 6.1
2019-Dec-05 21:01 300 6.7
2019-Dec-05 20:46 226 6.7
2019-Dec-05 20:31 293 0 gusting 9 6.7
2019-Dec-05 20:15 298 0 gusting 4 6.7
2019-Dec-05 20:01 298 0 gusting 5 7.2
2019-Dec-05 19:46 295 0 gusting 5 6.7
2019-Dec-05 19:31 297 0 gusting 3 6.7
2019-Dec-05 19:16 008 0 gusting 5 6.7
2019-Dec-05 19:01 301 6.7
2019-Dec-05 18:46 294 0 gusting 7 6.7
2019-Dec-05 18:31 074 0 gusting 7 6.7
2019-Dec-05 18:15 294 1 gusting 5 6.7
2019-Dec-05 18:01 296 1 gusting 6 6.7
2019-Dec-05 17:45 302 0 gusting 4 6.7
2019-Dec-05 17:30 296 0 gusting 5 6.7
2019-Dec-05 17:15 295 1 gusting 6 6.7
2019-Dec-05 17:00 301 1 gusting 5 6.7
2019-Dec-05 16:45 295 0 gusting 6 6.7
2019-Dec-05 16:31 302 1 gusting 5 6.7
2019-Dec-05 16:15 301 1 gusting 12 6.7
2019-Dec-05 16:01 298 0 gusting 10 6.7
2019-Dec-05 15:45 299 0 gusting 5 6.1
2019-Dec-05 15:30 298 0 gusting 5 6.1
2019-Dec-05 15:15 300 0 gusting 9 5.6
2019-Dec-05 15:00 298 0 gusting 5 5.6
2019-Dec-05 14:45 290 0 gusting 6 5.0
2019-Dec-05 14:30 301 0 gusting 11 5.0
2019-Dec-05 14:17 293 0 gusting 7 5.0
2019-Dec-05 14:15 297 0 gusting 7 5.0
2019-Dec-05 14:01 128 1 gusting 12 4.4
2019-Dec-05 13:47 302 0 gusting 6 4.4
2019-Dec-05 13:31 299 0 gusting 5 3.9
2019-Dec-05 13:18 299 0 gusting 3 3.3
2019-Dec-05 13:01 302 0 gusting 8 3.3
2019-Dec-05 12:46 297 2.8
2019-Dec-05 12:31 300 0 gusting 4 2.8
2019-Dec-05 12:16 297 2.2
2019-Dec-05 12:01 296 2.2
2019-Dec-05 11:46 298 2.2
2019-Dec-05 11:30 298 2.2
2019-Dec-05 11:17 297 2.2
2019-Dec-05 11:01 307 2.2
2019-Dec-05 10:46 294 2.8
2019-Dec-05 10:31 294 2.8
2019-Dec-05 10:16 096 2.2
2019-Dec-05 10:00 297 0 gusting 2 2.8
2019-Dec-05 09:45 298 3.3
2019-Dec-05 09:30 295 3.3
2019-Dec-05 09:15 298 0 gusting 6 3.3
2019-Dec-05 09:00 298 3.3